Weather History for Ozark, AL

Change the Weather History Date:

Sunday, December 30, 2012

  Actual Average Record
Temperature  
Mean Temperature 40 °F -  
Max Temperature 52 °F 58 °F 78 °F (1996)
Min Temperature 27 °F 37 °F 27 °F (2012)
Degree Days  
Heating Degree Days 26    
Moisture  
Dew Point 26 °F    
Average Humidity 65    
Maximum Humidity 89    
Minimum Humidity 35    
Precipitation  
Precipitation 0.00 in - - ()
Sea Level Pressure  
Sea Level Pressure 30.40 in    
Wind  
Wind Speed 6 mph (NNW)    
Max Wind Speed 9 mph    
Max Gust Speed -    
Visibility 10 miles    
Events      
Averages and records for this station are not official NWS values.
T = Trace of Precipitation, MM = Missing Value Source: NWS Daily Summary

Daily Weather History Graph

Daily Weather History Graph

Search for Another Location

Airport:

Trip Planner

Search our weather history database for the weather conditions in past years. The results will help you decide how hot, cold, wet, or windy it might be!

Date:

Astronomy

Dec. 30, 2012 Rise Set
Actual Time 6:41 AM CST 4:50 PM CST
Civil Twilight 6:14 AM CST 5:16 PM CST
Nautical Twilight 5:44 AM CST 5:47 PM CST
Astronomical Twilight 5:14 AM CST 6:16 PM CST
Moon 7:10 PM CST (12/30) 7:58 AM CST (12/30)
Length of Visible Light 11h 02m
Length of Day
10h 08m
Waning Gibbous, 95% of the Moon is Illuminated
Dec 30
Waning Gibbous
Jan 4
Last Quarter
Jan 11
New
Jan 18
First Quarter
Jan 26
Full

Hourly Weather History & Observations

Time (CST) Temp. Windchill Dew Point Humidity Pressure Visibility Wind Dir Wind Speed Gust Speed Precip Events Conditions
12:55 AM 33.8 °F 26.4 °F 23.7 °F 67% 30.34 in 10.0 mi NNW 9.2 mph - N/A   Clear
1:55 AM 32.5 °F 26.2 °F 23.7 °F 70% 30.36 in 10.0 mi NW 6.9 mph - N/A   Clear
2:55 AM 31.5 °F 24.2 °F 23.7 °F 73% 30.37 in 10.0 mi NNW 8.1 mph - N/A   Clear
3:55 AM 29.3 °F 23.2 °F 23.7 °F 80% 30.37 in 10.0 mi NW 5.8 mph - N/A   Clear
4:55 AM 28.2 °F 22.0 °F 23.7 °F 83% 30.38 in 10.0 mi NW 5.8 mph - N/A   Clear
5:55 AM 27.9 °F 21.5 °F 23.9 °F 85% 30.41 in 10.0 mi NW 5.8 mph - N/A   Clear
6:55 AM 27.0 °F 20.5 °F 24.1 °F 89% 30.44 in 10.0 mi WNW 5.8 mph - N/A   Clear
7:55 AM 30.2 °F 21.9 °F 25.0 °F 81% 30.45 in 10.0 mi NNW 9.2 mph - N/A   Clear
8:55 AM 34.9 °F 29.0 °F 25.2 °F 68% 30.47 in 10.0 mi North 6.9 mph - N/A   Clear
9:55 AM 39.0 °F 33.4 °F 25.9 °F 59% 30.48 in 10.0 mi North 8.1 mph - N/A   Clear
10:55 AM 43.3 °F 38.6 °F 25.7 °F 50% 30.45 in 10.0 mi North 8.1 mph - N/A   Clear
11:55 AM 46.6 °F - 24.3 °F 42% 30.43 in 10.0 mi Variable 3.5 mph - N/A   Clear
12:55 PM 48.9 °F - 25.0 °F 39% 30.41 in 10.0 mi Calm Calm - N/A   Clear
1:55 PM 51.1 °F - 24.6 °F 36% 30.40 in 10.0 mi WNW 4.6 mph - N/A   Clear
2:55 PM 52.3 °F - 25.5 °F 35% 30.37 in 10.0 mi Variable 4.6 mph - N/A   Clear
3:55 PM 51.8 °F - 25.2 °F 36% 30.37 in 10.0 mi NNE 5.8 mph - N/A   Clear
4:55 PM 47.1 °F - 26.1 °F 44% 30.37 in 10.0 mi Calm Calm - N/A   Clear
5:55 PM 45.0 °F 41.2 °F 28.8 °F 53% 30.38 in 10.0 mi North 6.9 mph - N/A   Clear
6:55 PM 38.8 °F 34.6 °F 28.9 °F 68% 30.38 in 10.0 mi NE 5.8 mph - N/A   Clear
7:55 PM 37.8 °F - 29.1 °F 71% 30.40 in 10.0 mi Calm Calm - N/A   Clear
8:55 PM 35.8 °F - 29.3 °F 77% 30.40 in 10.0 mi Calm Calm - N/A   Clear
9:55 PM 34.9 °F - 29.7 °F 81% 30.41 in 10.0 mi Calm Calm - N/A   Partly Cloudy
10:55 PM 33.1 °F - 29.5 °F 87% 30.41 in 10.0 mi Calm Calm - N/A   Clear
11:55 PM 31.5 °F 28.1 °F 27.9 °F 87% 30.39 in 10.0 mi NE 3.5 mph - N/A   Clear